QPF
0.00 0.00 0.00 0.00 0.00 0.00 0.00 0.00 0.00 0.00 0.00 0.00 0.00 0.00 0.00 0.00 0.00 0.00 0.00 0.00 0.00 0.00 0.00 0.00 0.00 0.00 0.00 0.00 0.00 0.00 0.00 0.00 0.00 0.00 0.00 0.00 0.00 0.00 0.00 0.00 0.00 0.00 0.01 0.01 0.00 0.00 0.00 0.00 0.00
0.00 0.00 0.00 0.00 0.00 0.00 0.00 0.00 0.00 0.00 0.00 0.00 0.00 0.00 0.00 0.00 0.00 0.00 0.00 0.00 0.00 0.00 0.00 0.00 0.00 0.00 0.00 0.00 0.00 0.00 0.00 0.00 0.00 0.00 0.00 0.00 0.01 0.02 0.00 0.00 0.00 0.00 0.00 0.00 0.00 0.00 0.00 0.00 0.00
0.00 0.00 0.00 0.00 0.00 0.00 0.00 0.00 0.00 0.00 0.00 0.00 0.00 0.00 0.00 0.00 0.00 0.00 0.00 0.00 0.00 0.00 0.00 0.00 0.00 0.00 0.00 0.00 0.00 0.00 0.00 0.00 0.00 0.00 0.00 0.00 0.01 0.01 0.00 0.00 0.00 0.00 0.00 0.00 0.00 0.00 0.00 0.00 0.00
0.00 0.00 0.00 0.00 0.00 0.00 0.00 0.00 0.00 0.00 0.00 0.00 0.00 0.00 0.00 0.00 0.00 0.00 0.00 0.00 0.00 0.00 0.00 0.00 0.00 0.00 0.00 0.00 0.00 0.00 0.00 0.00 0.00 0.00 0.00 0.00 0.03 0.02 0.00 0.01 0.00 0.01 0.00 0.00 0.00 0.00 0.00 0.00 0.00
0.00 0.00 0.00 0.00 0.00 0.00 0.00 0.00 0.00 0.00 0.00 0.00 0.00 0.00 0.00 0.00 0.00 0.00 0.00 0.00 0.00 0.00 0.00 0.00 0.00 0.00 0.00 0.00 0.00 0.00 0.00 0.00 0.00 0.00 0.00 0.00 0.02 0.03 0.04 0.03 0.00 0.01 0.02 0.00 0.00 0.00 0.00 0.00 0.00
0.00 0.00 0.00 0.00 0.00 0.00 0.00 0.00 0.00 0.00 0.00 0.00 0.00 0.00 0.00 0.00 0.00 0.00 0.00 0.00 0.00 0.00 0.00 0.00 0.00 0.00 0.00 0.00 0.00 0.00 0.00 0.00 0.00 0.00 0.00 0.00 0.00 0.06 0.04 0.06 0.00 0.00 0.01 0.03 0.02 0.00 0.00 0.00 0.00
0.00 0.00 0.00 0.00 0.00 0.00 0.00 0.00 0.00 0.00 0.00 0.00 0.00 0.00 0.00 0.00 0.00 0.00 0.00 0.00 0.00 0.00 0.00 0.00 0.00 0.00 0.00 0.00 0.00 0.00 0.01 0.00 0.01 0.00 0.00 0.00 0.00 0.00 0.00 0.04 0.00 0.00 0.00 0.00 0.01 0.00 0.00 0.00 0.00
0.00 0.00 0.00 0.00 0.00 0.00 0.00 0.00 0.00 0.00 0.00 0.00 0.00 0.00 0.00 0.00 0.00 0.00 0.00 0.00 0.00 0.00 0.00 0.00 0.00 0.00 0.00 0.00 0.00 0.01 0.03 0.06 0.05 0.02 0.00 0.00 0.00 0.00 0.00 0.00 0.00 0.00 0.00 0.00 0.00 0.00 0.00 0.00 0.00
0.00 0.00 0.00 0.00 0.00 0.00 0.00 0.00 0.00 0.00 0.00 0.00 0.00 0.00 0.00 0.00 0.00 0.00 0.00 0.00 0.00 0.00 0.00 0.00 0.00 0.00 0.00 0.00 0.00 0.01 0.03 0.07 0.09 0.04 0.01 0.01 0.02 0.02 0.03 0.01 0.02 0.04 0.01 0.00 0.00 0.00 0.00 0.00 0.00
0.00 0.00 0.00 0.00 0.00 0.00 0.00 0.00 0.00 0.00 0.00 0.00 0.00 0.00 0.00 0.00 0.00 0.00 0.00 0.00 0.00 0.00 0.00 0.00 0.00 0.00 0.00 0.00 0.00 0.00 0.01 0.02 0.07 0.04 0.00 0.01 0.00 0.00 0.01 0.00 0.02 0.04 0.01 0.01 0.02 0.00 0.00 0.00 0.00
0.00 0.00 0.00 0.00 0.00 0.00 0.00 0.00 0.00 0.00 0.00 0.00 0.00 0.00 0.00 0.00 0.00 0.00 0.00 0.00 0.00 0.00 0.00 0.00 0.00 0.00 0.00 0.00 0.00 0.00 0.00 0.03 0.09 0.01 0.03 0.04 0.00 0.00 0.00 0.00 0.01 0.06 0.08 0.03 0.02 0.00 0.00 0.00 0.00
0.00 0.00 0.00 0.00 0.00 0.00 0.00 0.00 0.00 0.00 0.00 0.00 0.00 0.00 0.00 0.00 0.00 0.00 0.00 0.00 0.00 0.00 0.00 0.00 0.00 0.00 0.00 0.00 0.00 0.00 0.00 0.08 0.06 0.00 0.00 0.05 0.07 0.01 0.00 0.00 0.00 0.00 0.00 0.00 0.00 0.00 0.00 0.00 0.00
0.00 0.00 0.00 0.00 0.00 0.00 0.00 0.00 0.00 0.00 0.00 0.00 0.00 0.00 0.00 0.00 0.00 0.00 0.00 0.00 0.00 0.00 0.00 0.00 0.00 0.00 0.00 0.00 0.00 0.00 0.00 0.00 0.00 0.03 0.00 0.04 0.04 0.04 0.00 0.01 0.00 0.00 0.00 0.00 0.00 0.00 0.00 0.00 0.00
0.00 0.00 0.00 0.00 0.00 0.00 0.00 0.00 0.00 0.00 0.00 0.00 0.00 0.00 0.00 0.00 0.00 0.00 0.00 0.00 0.00 0.00 0.00 0.00 0.00 0.00 0.00 0.00 0.00 0.00 0.00 0.01 0.00 0.09 0.05 0.08 0.14 0.13 0.05 0.00 0.00 0.00 0.00 0.01 0.02 0.00 0.00 0.00 0.00
0.00 0.00 0.00 0.00 0.00 0.00 0.00 0.00 0.00 0.00 0.00 0.00 0.00 0.00 0.00 0.00 0.00 0.00 0.00 0.01 0.00 0.00 0.00 0.00 0.00 0.00 0.00 0.00 0.00 0.00 0.00 0.02 0.01 0.03 0.04 0.02 0.08 0.09 0.02 0.02 0.03 0.02 0.01 0.02 0.03 0.00 0.00 0.00 0.00
0.00 0.00 0.00 0.00 0.00 0.00 0.00 0.00 0.00 0.00 0.00 0.00 0.00 0.00 0.00 0.00 0.00 0.00 0.00 0.01 0.01 0.02 0.04 0.01 0.00 0.00 0.00 0.00 0.00 0.00 0.00 0.00 0.00 0.02 0.02 0.00 0.00 0.02 0.00 0.00 0.04 0.07 0.05 0.05 0.00 0.00 0.01 0.02 0.00
0.00 0.00 0.00 0.00 0.00 0.00 0.00 0.00 0.00 0.00 0.00 0.00 0.00 0.00 0.00 0.00 0.00 0.00 0.00 0.00 0.01 0.01 0.04 0.01 0.00 0.00 0.00 0.00 0.02 0.01 0.02 0.01 0.00 0.00 0.00 0.00 0.00 0.00 0.00 0.00 0.04 0.08 0.05 0.02 0.00 0.01 0.02 0.16 0.10
0.00 0.00 0.00 0.00 0.00 0.00 0.00 0.00 0.00 0.00 0.00 0.00 0.02 0.05 0.05 0.05 0.05 0.02 0.01 0.00 0.00 0.02 0.01 0.02 0.00 0.00 0.00 0.00 0.00 0.00 0.00 0.02 0.02 0.00 0.00 0.00 0.00 0.00 0.00 0.00 0.00 0.01 0.01 0.05 0.00 0.09 0.04 0.09 0.06
0.00 0.00 0.00 0.00 0.00 0.00 0.00 0.00 0.00 0.00 0.00 0.00 0.02 0.05 0.05 0.01 0.01 0.00 0.00 0.00 0.00 0.04 0.03 0.04 0.01 0.00 0.00 0.00 0.00 0.00 0.00 0.01 0.01 0.00 0.00 0.00 0.00 0.00 0.00 0.00 0.00 0.00 0.00 0.02 0.00 0.03 0.06 0.05 0.02
0.00 0.00 0.00 0.00 0.00 0.00 0.00 0.00 0.00 0.00 0.00 0.01 0.05 0.02 0.01 0.00 0.00 0.00 0.00 0.00 0.00 0.01 0.03 0.08 0.04 0.00 0.00 0.00 0.00 0.00 0.00 0.00 0.00 0.00 0.02 0.00 0.01 0.00 0.00 0.00 0.00 0.00 0.00 0.00 0.03 0.04 0.09 0.11 0.02
0.00 0.00 0.00 0.00 0.00 0.00 0.00 0.00 0.00 0.00 0.00 0.00 0.04 0.03 0.00 0.00 0.01 0.00 0.00 0.00 0.02 0.03 0.07 0.14 0.08 0.01 0.00 0.00 0.00 0.00 0.00 0.00 0.00 0.02 0.04 0.02 0.00 0.04 0.01 0.00 0.00 0.00 0.00 0.00 0.02 0.00 0.03 0.03 0.01
0.00 0.00 0.00 0.00 0.00 0.00 0.00 0.00 0.00 0.00 0.00 0.00 0.01 0.01 0.00 0.00 0.01 0.00 0.00 0.00 0.00 0.00 0.00 0.02 0.03 0.01 0.01 0.00 0.00 0.00 0.00 0.00 0.02 0.00 0.01 0.01 0.04 0.02 0.01 0.00 0.00 0.01 0.01 0.00 0.09 0.01 0.03 0.03 0.01
0.00 0.00 0.00 0.00 0.00 0.00 0.00 0.00 0.00 0.00 0.00 0.00 0.01 0.00 0.00 0.00 0.02 0.00 0.00 0.02 0.00 0.00 0.00 0.00 0.00 0.00 0.00 0.00 0.01 0.00 0.00 0.00 0.00 0.00 0.00 0.00 0.01 0.01 0.04 0.03 0.00 0.01 0.03 0.01 0.01 0.00 0.13 0.10 0.08
0.00 0.00 0.00 0.00 0.00 0.00 0.00 0.00 0.00 0.00 0.00 0.00 0.00 0.00 0.00 0.01 0.03 0.00 0.00 0.00 0.00 0.00 0.00 0.03 0.01 0.00 0.00 0.00 0.01 0.00 0.00 0.00 0.00 0.03 0.00 0.00 0.00 0.00 0.00 0.03 0.02 0.06 0.05 0.04 0.05 0.06 0.02 0.04 0.06
0.00 0.00 0.00 0.00 0.00 0.00 0.00 0.00 0.00 0.00 0.00 0.00 0.00 0.00 0.01 0.02 0.01 0.00 0.00 0.00 0.00 0.00 0.00 0.00 0.00 0.00 0.00 0.00 0.00 0.00 0.00 0.00 0.00 0.00 0.00 0.00 0.00 0.00 0.00 0.00 0.01 0.00 0.01 0.03 0.01 0.02 0.00 0.00 0.02
0.00 0.00 0.00 0.00 0.00 0.00 0.00 0.00 0.00 0.00 0.00 0.00 0.00 0.00 0.00 0.00 0.00 0.00 0.00 0.00 0.00 0.00 0.00 0.00 0.00 0.00 0.00 0.00 0.00 0.01 0.00 0.00 0.00 0.00 0.04 0.03 0.02 0.03 0.00 0.00 0.00 0.00 0.00 0.01 0.08 0.06 0.06 0.02 0.01
0.00 0.00 0.00 0.00 0.00 0.00 0.00 0.00 0.00 0.00 0.00 0.00 0.00 0.00 0.00 0.00 0.00 0.00 0.00 0.00 0.00 0.00 0.00 0.00 0.00 0.00 0.00 0.00 0.00 0.00 0.01 0.01 0.04 0.06 0.09 0.06 0.04 0.01 0.02 0.00 0.00 0.00 0.00 0.00 0.02 0.03 0.04 0.07 0.07
0.00 0.00 0.00 0.00 0.00 0.00 0.00 0.00 0.00 0.00 0.00 0.00 0.00 0.00 0.00 0.00 0.00 0.00 0.00 0.00 0.00 0.00 0.00 0.00 0.00 0.00 0.00 0.00 0.00 0.00 0.00 0.00 0.01 0.00 0.00 0.00 0.00 0.00 0.00 0.00 0.00 0.00 0.00 0.00 0.00 0.00 0.02 0.05 0.05
0.00 0.00 0.00 0.00 0.00 0.00 0.00 0.00 0.00 0.00 0.00 0.00 0.00 0.00 0.00 0.00 0.00 0.00 0.00 0.00 0.00 0.00 0.00 0.00 0.00 0.00 0.00 0.00 0.00 0.00 0.00 0.00 0.00 0.00 0.00 0.00 0.00 0.00 0.00 0.00 0.00 0.00 0.00 0.00 0.00 0.00 0.06 0.03 0.01
0.00 0.00 0.00 0.00 0.00 0.00 0.00 0.00 0.00 0.00 0.00 0.00 0.00 0.00 0.00 0.00 0.00 0.00 0.00 0.00 0.00 0.00 0.00 0.00 0.00 0.00 0.00 0.00 0.00 0.00 0.00 0.00 0.00 0.00 0.00 0.00 0.00 0.00 0.00 0.00 0.00 0.00 0.00 0.00 0.02 0.03 0.02 0.00 0.02
MSLP
1008.68 1008.70 1008.76 1008.49 1008.54 1007.89 1008.21 1008.78 1008.88 1009.07 1009.34 1009.74 1010.07 1010.59 1011.15 1011.84 1012.27 1013.32 1013.79 1014.27 1014.59 1015.14 1015.65 1016.15 1016.44 1016.62 1016.87 1017.11 1017.29 1017.34 1017.46 1017.48 1017.45 1017.56 1017.69 1017.72 1017.78 1017.79 1017.83 1017.95 1017.91 1018.00 1018.11 1018.11 1018.20 1018.32 1018.37 1018.50 1018.60
1008.39 1008.65 1008.40 1008.04 1008.01 1007.83 1008.19 1008.46 1008.55 1008.99 1009.41 1009.82 1010.16 1010.69 1011.24 1012.24 1012.94 1013.64 1014.04 1014.57 1014.73 1015.13 1015.60 1016.03 1016.57 1016.79 1017.05 1017.22 1017.42 1017.52 1017.67 1017.73 1017.74 1017.84 1017.97 1018.04 1018.01 1018.00 1018.02 1018.02 1018.11 1018.14 1018.26 1018.34 1018.44 1018.58 1018.62 1018.73 1018.87
1008.46 1008.30 1007.97 1008.05 1008.21 1007.91 1008.00 1008.24 1008.71 1009.24 1009.45 1009.68 1010.19 1010.88 1011.74 1012.87 1013.49 1013.66 1014.12 1014.54 1014.93 1015.47 1015.83 1016.21 1016.68 1016.93 1017.22 1017.39 1017.55 1017.71 1017.82 1017.96 1018.02 1018.08 1018.19 1018.20 1018.17 1018.14 1018.16 1018.29 1018.34 1018.45 1018.47 1018.64 1018.69 1018.77 1018.88 1018.88 1018.97
1008.03 1007.91 1008.22 1008.05 1007.97 1008.18 1008.03 1008.27 1008.77 1009.24 1009.49 1009.83 1010.35 1011.34 1012.80 1013.38 1013.70 1013.94 1014.42 1014.62 1015.12 1015.62 1015.92 1016.57 1016.81 1017.12 1017.33 1017.56 1017.70 1017.87 1018.02 1018.15 1018.25 1018.26 1018.27 1018.25 1018.30 1018.28 1018.30 1018.32 1018.38 1018.50 1018.68 1018.77 1018.80 1018.87 1018.96 1019.14 1019.31
1008.01 1007.91 1007.84 1007.91 1008.00 1008.01 1008.09 1008.43 1008.92 1009.11 1009.61 1010.11 1010.58 1012.02 1013.12 1013.92 1013.92 1014.38 1014.67 1014.96 1015.23 1015.75 1016.08 1016.51 1016.92 1017.22 1017.46 1017.66 1017.87 1018.00 1018.15 1018.33 1018.39 1018.45 1018.47 1018.48 1018.47 1018.40 1018.47 1018.48 1018.58 1018.64 1018.82 1018.98 1019.04 1019.11 1019.09 1019.18 1019.44
1007.71 1007.96 1007.96 1007.85 1007.97 1008.10 1008.26 1008.60 1008.81 1009.18 1009.84 1010.47 1011.17 1012.07 1013.83 1014.48 1014.42 1014.68 1015.00 1015.19 1015.42 1015.84 1016.15 1016.56 1017.12 1017.29 1017.56 1017.75 1017.91 1018.16 1018.28 1018.47 1018.63 1018.64 1018.69 1018.71 1018.70 1018.69 1018.67 1018.79 1018.74 1018.84 1018.90 1019.05 1019.14 1019.26 1019.35 1019.40 1019.52
1007.32 1007.60 1007.82 1007.89 1007.94 1007.99 1008.35 1008.69 1008.92 1009.38 1009.89 1010.40 1011.12 1012.23 1014.19 1014.62 1014.79 1015.02 1015.33 1015.58 1015.69 1015.96 1016.31 1016.72 1016.94 1017.36 1017.65 1017.84 1018.01 1018.27 1018.45 1018.55 1018.70 1018.78 1018.83 1018.85 1018.85 1018.82 1018.79 1018.87 1018.86 1018.94 1019.02 1019.03 1019.16 1019.28 1019.47 1019.64 1019.75
1007.38 1007.58 1007.65 1007.57 1007.65 1008.19 1008.61 1008.81 1009.17 1009.44 1010.07 1010.52 1011.10 1012.03 1013.34 1014.20 1014.89 1015.35 1015.66 1015.87 1016.12 1016.25 1016.41 1016.59 1016.93 1017.22 1017.48 1017.67 1018.05 1018.29 1018.55 1018.73 1018.80 1018.86 1018.85 1018.90 1018.91 1018.90 1018.95 1018.98 1019.04 1019.02 1019.08 1019.11 1019.21 1019.35 1019.50 1019.64 1019.69
1007.54 1007.58 1007.25 1006.99 1007.36 1008.09 1008.49 1008.72 1009.41 1009.78 1010.12 1011.06 1011.64 1011.83 1012.54 1014.09 1014.92 1015.30 1015.71 1016.07 1016.37 1016.51 1016.63 1016.58 1016.76 1017.27 1017.71 1017.94 1018.00 1018.30 1018.45 1018.72 1018.84 1018.82 1018.83 1018.89 1018.95 1018.98 1019.01 1019.11 1019.16 1019.16 1019.11 1019.15 1019.29 1019.40 1019.53 1019.57 1019.61
1007.09 1007.20 1006.77 1006.64 1007.11 1007.74 1008.30 1008.68 1009.33 1010.02 1010.67 1011.65 1012.23 1012.83 1013.59 1014.27 1014.67 1014.81 1015.01 1015.32 1015.81 1016.07 1016.52 1016.74 1016.85 1017.19 1017.59 1017.84 1018.21 1018.27 1018.32 1018.41 1018.71 1018.81 1019.03 1019.11 1019.28 1019.19 1019.09 1019.15 1019.22 1019.16 1019.08 1019.17 1019.34 1019.37 1019.47 1019.52 1019.19
1007.11 1006.74 1006.56 1006.70 1007.10 1007.69 1008.29 1008.95 1009.52 1010.07 1010.44 1011.20 1012.01 1013.03 1013.79 1014.30 1014.69 1014.79 1014.88 1014.91 1015.33 1015.89 1016.39 1016.88 1017.26 1017.49 1017.60 1017.94 1018.10 1018.28 1018.30 1018.40 1018.92 1018.81 1019.10 1019.11 1019.27 1019.25 1019.06 1019.13 1019.07 1019.22 1019.35 1019.13 1019.29 1019.23 1019.10 1019.01 1019.19
1006.75 1006.54 1006.73 1007.22 1007.48 1007.91 1008.48 1009.20 1009.78 1010.18 1010.55 1011.05 1011.98 1012.63 1013.47 1014.00 1014.32 1014.49 1014.68 1015.06 1015.61 1015.97 1016.44 1016.76 1017.20 1017.67 1017.88 1017.97 1018.06 1018.30 1018.45 1018.69 1018.80 1018.99 1019.13 1019.17 1019.06 1018.99 1019.16 1018.97 1019.16 1019.21 1019.09 1019.22 1019.26 1019.18 1019.22 1019.23 1019.23
1006.65 1006.61 1007.07 1007.44 1007.57 1008.18 1008.91 1009.43 1009.94 1010.75 1011.35 1012.00 1012.50 1013.05 1013.46 1013.90 1014.41 1014.64 1014.97 1015.27 1015.70 1015.88 1016.29 1016.79 1017.27 1017.78 1018.07 1018.28 1018.16 1018.28 1018.38 1018.34 1018.34 1018.85 1019.00 1019.11 1018.94 1018.88 1019.32 1019.44 1019.33 1019.21 1019.10 1018.99 1019.07 1019.08 1018.98 1018.99 1018.84
1006.81 1006.95 1007.50 1007.90 1007.95 1008.49 1009.03 1009.84 1010.10 1011.49 1011.88 1012.54 1012.96 1013.19 1013.45 1013.74 1014.20 1014.57 1014.79 1015.00 1015.46 1015.87 1016.25 1016.80 1017.38 1017.71 1018.02 1018.12 1018.31 1018.31 1018.29 1018.38 1018.23 1018.48 1018.49 1018.85 1019.00 1019.24 1019.52 1019.48 1019.49 1019.13 1019.11 1019.01 1018.94 1018.88 1018.81 1018.66 1018.49
1006.97 1007.26 1007.80 1008.36 1008.45 1008.88 1009.36 1009.96 1010.56 1011.20 1011.89 1012.42 1012.86 1013.34 1013.68 1014.03 1014.29 1014.25 1014.53 1014.82 1015.38 1015.72 1016.32 1016.73 1017.09 1017.43 1017.74 1017.89 1018.00 1018.13 1018.10 1018.24 1018.29 1018.15 1018.07 1018.04 1018.43 1018.73 1019.20 1019.41 1019.60 1019.72 1019.49 1019.51 1019.31 1019.03 1018.85 1018.59 1018.20
1006.91 1007.41 1007.82 1008.65 1008.89 1009.43 1009.70 1010.17 1011.05 1011.55 1011.76 1012.31 1012.80 1013.20 1013.58 1013.85 1014.13 1014.29 1014.52 1014.81 1015.15 1015.73 1016.31 1016.71 1016.87 1017.17 1017.44 1017.53 1017.84 1017.96 1018.02 1018.08 1018.06 1018.09 1018.15 1018.14 1018.24 1018.38 1018.66 1018.87 1019.18 1019.39 1019.49 1019.65 1019.17 1018.90 1018.53 1018.33 1018.00
1007.38 1007.44 1008.05 1008.72 1009.11 1009.40 1010.00 1010.36 1011.00 1011.48 1011.88 1012.50 1013.09 1013.28 1013.51 1013.61 1013.65 1013.84 1014.14 1014.54 1014.88 1015.56 1016.23 1016.46 1016.72 1017.01 1017.29 1017.47 1017.82 1017.95 1018.06 1018.02 1017.82 1017.88 1017.74 1017.78 1017.94 1018.15 1018.35 1018.37 1018.62 1019.15 1019.12 1019.08 1018.83 1018.73 1018.52 1018.07 1017.81
1007.67 1007.85 1008.32 1008.63 1009.31 1009.63 1010.09 1010.60 1011.02 1011.42 1011.90 1012.22 1012.55 1012.99 1013.03 1013.13 1013.40 1013.57 1013.76 1014.19 1014.46 1015.24 1016.01 1016.24 1016.61 1017.02 1017.37 1017.27 1017.48 1017.50 1017.55 1017.63 1017.64 1017.48 1017.45 1017.63 1017.71 1017.98 1018.18 1018.22 1018.37 1018.59 1018.79 1018.70 1018.58 1018.25 1018.03 1017.92 1017.68
1008.05 1008.19 1008.44 1009.13 1009.60 1010.01 1010.42 1010.70 1011.00 1011.55 1011.84 1012.13 1012.76 1013.27 1013.53 1013.31 1013.52 1013.33 1013.51 1013.86 1014.34 1015.04 1015.53 1016.10 1016.50 1016.90 1017.19 1017.27 1017.18 1017.09 1017.15 1017.36 1017.42 1017.18 1017.27 1017.52 1017.50 1017.72 1017.97 1017.89 1018.04 1018.16 1018.22 1018.16 1018.18 1017.94 1017.72 1017.21 1017.42
1007.96 1008.06 1008.59 1009.49 1009.90 1010.01 1010.60 1010.69 1010.92 1011.50 1011.63 1011.81 1012.72 1013.32 1013.42 1013.27 1013.45 1013.56 1013.39 1013.58 1014.12 1014.64 1015.41 1016.09 1016.38 1016.62 1016.97 1017.09 1017.08 1017.09 1017.08 1017.07 1017.10 1017.00 1017.03 1017.05 1017.17 1017.28 1017.43 1017.58 1017.71 1017.75 1017.86 1018.03 1017.94 1017.85 1017.44 1017.15 1017.06
1007.53 1007.75 1008.39 1009.01 1009.81 1010.32 1010.38 1010.36 1010.52 1011.11 1011.62 1012.00 1012.77 1013.18 1013.36 1013.19 1013.56 1013.65 1013.46 1013.31 1013.77 1014.32 1015.01 1014.93 1015.49 1015.88 1016.34 1016.65 1016.90 1017.09 1017.21 1017.05 1016.96 1016.95 1016.83 1016.78 1016.94 1017.08 1017.28 1017.32 1017.37 1017.45 1017.63 1017.64 1017.54 1017.42 1017.39 1017.03 1016.85
1007.43 1007.73 1008.14 1008.71 1009.10 1009.73 1010.47 1009.71 1009.87 1010.50 1011.39 1011.89 1012.39 1012.81 1013.33 1013.46 1013.79 1014.04 1013.79 1013.47 1013.30 1013.79 1014.34 1014.62 1015.04 1015.19 1015.80 1016.23 1016.42 1016.28 1016.19 1016.46 1016.72 1016.87 1016.88 1016.71 1016.72 1016.60 1016.65 1016.77 1016.79 1017.07 1017.15 1017.18 1017.22 1017.23 1017.03 1017.02 1016.57
1007.81 1007.79 1008.09 1008.91 1009.29 1009.71 1010.24 1010.22 1009.38 1010.25 1010.80 1011.64 1012.42 1012.96 1013.29 1013.63 1014.16 1014.34 1014.26 1013.91 1013.74 1013.75 1014.19 1014.46 1014.99 1015.41 1015.72 1016.08 1016.09 1016.14 1016.30 1016.17 1016.41 1016.74 1016.79 1016.62 1016.46 1016.20 1016.06 1016.17 1016.22 1016.38 1016.45 1016.51 1016.59 1016.47 1016.41 1016.47 1016.56
1007.93 1007.98 1008.40 1008.92 1009.40 1009.62 1010.24 1010.44 1008.92 1009.64 1010.48 1011.81 1012.82 1013.05 1013.65 1014.12 1014.42 1014.49 1014.42 1014.09 1013.91 1013.79 1013.85 1014.06 1014.75 1015.28 1015.40 1015.56 1016.01 1016.49 1016.66 1016.65 1016.62 1016.69 1016.37 1016.05 1015.92 1015.74 1015.52 1015.51 1015.58 1015.53 1015.72 1015.71 1015.70 1015.63 1015.74 1015.98 1015.88
1007.32 1007.19 1007.74 1008.42 1009.12 1009.44 1010.58 1010.76 1008.77 1009.50 1010.54 1011.96 1012.77 1013.23 1013.47 1013.78 1014.36 1014.34 1014.33 1013.95 1013.97 1014.06 1014.02 1014.20 1014.61 1015.14 1015.54 1015.64 1016.27 1016.34 1016.82 1016.85 1016.79 1016.58 1015.99 1015.78 1015.44 1015.24 1014.94 1015.05 1015.05 1014.91 1014.98 1015.04 1015.07 1015.12 1015.21 1015.36 1015.34
1006.87 1006.70 1006.85 1007.54 1008.48 1009.36 1010.79 1009.85 1008.74 1009.72 1010.61 1011.65 1012.83 1013.21 1013.72 1014.10 1014.37 1014.44 1013.91 1013.96 1014.05 1014.22 1014.50 1014.86 1015.12 1015.17 1015.51 1016.07 1016.61 1016.76 1017.03 1016.95 1016.76 1016.46 1016.06 1016.06 1015.81 1015.33 1015.02 1015.00 1014.89 1014.95 1014.54 1014.40 1014.51 1014.69 1014.68 1014.69 1014.72
1007.14 1007.28 1007.49 1007.78 1009.41 1009.22 1009.61 1009.43 1008.78 1009.60 1010.39 1011.38 1012.36 1013.13 1013.77 1014.23 1014.56 1014.51 1014.47 1014.49 1013.97 1014.50 1015.07 1015.53 1015.67 1015.65 1015.72 1016.27 1016.99 1017.34 1017.41 1017.21 1016.91 1016.57 1016.41 1016.10 1015.53 1015.13 1015.01 1015.15 1015.12 1015.00 1014.69 1014.58 1014.46 1014.16 1014.12 1014.22 1014.12
1006.94 1007.63 1007.67 1007.76 1008.22 1008.54 1008.84 1009.06 1008.65 1009.12 1009.71 1010.90 1012.07 1012.80 1013.77 1014.12 1014.52 1014.64 1014.76 1015.16 1014.66 1015.13 1015.80 1016.06 1016.06 1016.15 1016.26 1016.44 1016.67 1016.87 1016.86 1016.76 1016.63 1016.53 1016.16 1015.85 1015.62 1015.42 1015.28 1015.10 1014.96 1014.74 1014.41 1014.30 1014.12 1013.85 1013.76 1013.65 1013.39
1007.56 1007.44 1008.01 1008.07 1008.29 1008.03 1008.14 1007.75 1008.15 1008.59 1009.03 1010.11 1011.49 1012.62 1013.49 1014.22 1014.52 1014.66 1015.25 1015.29 1015.74 1015.94 1016.17 1016.32 1016.32 1016.61 1016.74 1016.80 1017.01 1017.11 1017.14 1017.12 1017.11 1017.04 1016.90 1016.67 1016.33 1016.12 1015.75 1015.31 1014.97 1014.75 1014.54 1014.15 1013.82 1013.62 1013.37 1013.22 1012.90
1007.16 1007.08 1006.98 1006.90 1008.08 1008.57 1008.37 1007.70 1008.23 1008.60 1009.02 1010.04 1011.17 1012.42 1013.31 1014.12 1014.72 1015.11 1015.56 1016.00 1016.32 1016.58 1016.83 1017.07 1017.06 1017.10 1017.29 1017.45 1017.43 1017.56 1017.79 1017.76 1017.56 1017.48 1017.34 1017.09 1016.73 1016.37 1016.06 1015.81 1015.31 1014.81 1014.35 1014.06 1013.82 1013.51 1013.01 1012.55 1012.29
Thickness
5841 5839 5836 5826 5802 5801 5776 5775 5790 5782 5781 5791 5793 5783 5778 5776 5768 5757 5778 5778 5776 5772 5767 5764 5762 5760 5755 5751 5748 5746 5745 5745 5745 5744 5741 5741 5741 5741 5742 5742 5743 5743 5743 5744 5744 5744 5745 5744 5744
5845 5840 5835 5818 5794 5775 5774 5790 5785 5789 5792 5796 5794 5787 5780 5766 5776 5771 5772 5776 5775 5773 5769 5766 5762 5760 5756 5752 5749 5747 5746 5745 5745 5743 5741 5741 5741 5742 5742 5743 5743 5743 5742 5742 5742 5742 5742 5742 5742
5846 5845 5825 5804 5788 5776 5777 5793 5792 5794 5800 5796 5788 5793 5782 5768 5772 5775 5779 5778 5774 5770 5767 5766 5763 5760 5756 5753 5750 5748 5746 5744 5743 5742 5742 5742 5742 5743 5743 5742 5743 5742 5743 5741 5740 5741 5740 5742 5743
5844 5837 5825 5799 5784 5791 5793 5798 5799 5793 5799 5801 5794 5776 5778 5781 5775 5780 5780 5778 5774 5770 5768 5764 5762 5759 5757 5753 5751 5748 5746 5744 5743 5742 5743 5743 5743 5743 5744 5744 5743 5743 5742 5742 5741 5741 5741 5741 5741
5843 5828 5803 5792 5789 5800 5805 5806 5801 5793 5792 5793 5794 5771 5768 5776 5782 5779 5778 5777 5774 5771 5767 5764 5761 5758 5756 5754 5750 5748 5746 5744 5744 5743 5743 5743 5744 5745 5744 5743 5743 5742 5741 5741 5741 5741 5741 5741 5740
5825 5822 5792 5782 5789 5801 5807 5809 5805 5798 5795 5791 5785 5778 5766 5776 5776 5776 5777 5774 5772 5770 5767 5764 5760 5758 5755 5753 5750 5747 5745 5744 5743 5743 5743 5743 5744 5744 5744 5743 5743 5742 5741 5741 5741 5742 5741 5741 5740
5824 5811 5793 5791 5790 5797 5803 5814 5801 5797 5794 5790 5795 5773 5765 5769 5775 5776 5774 5773 5770 5769 5767 5764 5762 5758 5756 5753 5751 5747 5745 5745 5744 5744 5744 5744 5745 5745 5745 5744 5744 5743 5742 5743 5743 5743 5742 5740 5739
5831 5818 5796 5800 5794 5790 5806 5808 5809 5802 5791 5807 5802 5775 5765 5774 5777 5775 5772 5771 5769 5768 5767 5766 5763 5760 5757 5755 5752 5750 5747 5745 5744 5744 5745 5745 5746 5747 5747 5746 5745 5744 5743 5744 5744 5743 5742 5741 5742
5838 5804 5795 5803 5798 5797 5812 5802 5811 5813 5801 5795 5795 5793 5792 5782 5777 5773 5768 5766 5766 5767 5767 5767 5765 5761 5757 5754 5753 5751 5749 5746 5744 5744 5744 5746 5746 5747 5748 5748 5747 5747 5746 5746 5745 5745 5743 5744 5744
5826 5805 5808 5825 5820 5808 5812 5810 5806 5799 5793 5783 5784 5789 5785 5781 5776 5773 5772 5769 5767 5768 5767 5767 5765 5762 5759 5756 5753 5751 5751 5749 5745 5744 5743 5745 5745 5746 5747 5748 5748 5748 5749 5748 5747 5747 5746 5746 5749
5824 5812 5825 5827 5827 5823 5812 5808 5810 5797 5789 5791 5784 5781 5780 5777 5774 5774 5773 5775 5772 5771 5769 5765 5762 5760 5759 5757 5755 5753 5752 5750 5746 5746 5744 5745 5745 5746 5749 5748 5749 5749 5749 5750 5749 5749 5750 5751 5750
5820 5832 5829 5825 5828 5821 5810 5812 5801 5801 5798 5804 5796 5792 5784 5778 5776 5775 5774 5773 5770 5769 5768 5767 5762 5759 5757 5757 5757 5754 5752 5749 5747 5746 5745 5744 5747 5749 5748 5750 5749 5750 5752 5751 5751 5752 5752 5752 5752
5826 5829 5828 5829 5830 5823 5819 5806 5801 5794 5798 5796 5793 5787 5781 5778 5775 5776 5775 5774 5770 5769 5768 5765 5761 5757 5756 5755 5756 5755 5755 5754 5751 5748 5748 5748 5749 5751 5747 5747 5748 5750 5752 5754 5753 5753 5754 5754 5756
5833 5830 5824 5826 5825 5822 5811 5804 5807 5792 5797 5788 5785 5782 5782 5778 5775 5774 5774 5773 5770 5768 5767 5765 5760 5758 5756 5756 5755 5755 5756 5755 5753 5751 5754 5752 5752 5751 5748 5746 5747 5751 5752 5754 5754 5755 5755 5757 5759
5833 5816 5820 5816 5819 5814 5819 5798 5793 5801 5797 5787 5784 5782 5779 5776 5776 5773 5774 5772 5770 5768 5766 5763 5762 5759 5758 5758 5757 5756 5757 5756 5755 5755 5757 5759 5757 5754 5751 5749 5748 5747 5749 5749 5752 5754 5756 5758 5762
5821 5818 5797 5811 5815 5813 5812 5785 5795 5802 5797 5786 5784 5781 5779 5778 5777 5776 5775 5773 5772 5767 5763 5762 5763 5761 5759 5759 5759 5758 5757 5757 5758 5757 5758 5757 5758 5757 5755 5754 5752 5751 5751 5748 5750 5755 5759 5762 5765
5811 5792 5795 5798 5815 5811 5803 5789 5799 5806 5798 5785 5781 5781 5779 5777 5778 5782 5780 5776 5772 5766 5760 5761 5762 5761 5760 5759 5759 5758 5757 5758 5760 5760 5760 5762 5760 5759 5759 5758 5755 5751 5752 5752 5753 5755 5760 5764 5767
5787 5792 5796 5795 5805 5806 5796 5790 5797 5803 5798 5792 5790 5785 5781 5775 5775 5782 5783 5781 5778 5769 5761 5762 5762 5761 5759 5761 5761 5761 5760 5760 5761 5762 5762 5762 5762 5760 5759 5759 5758 5756 5755 5757 5759 5761 5765 5764 5767
5800 5795 5792 5798 5805 5797 5787 5789 5795 5797 5796 5793 5787 5782 5775 5776 5779 5785 5784 5783 5776 5770 5765 5762 5759 5761 5762 5762 5762 5764 5762 5762 5761 5763 5763 5763 5763 5762 5760 5761 5760 5760 5761 5763 5764 5766 5766 5769 5771
5802 5796 5790 5794 5799 5799 5785 5786 5794 5793 5795 5796 5783 5776 5778 5782 5781 5780 5784 5784 5779 5774 5766 5763 5762 5764 5763 5764 5766 5766 5765 5766 5764 5765 5766 5766 5765 5765 5763 5763 5763 5761 5762 5763 5765 5766 5768 5772 5775
5806 5800 5793 5794 5793 5794 5790 5786 5789 5794 5791 5792 5782 5779 5779 5781 5777 5778 5781 5786 5784 5778 5772 5776 5773 5773 5771 5768 5766 5766 5766 5766 5767 5767 5768 5769 5767 5767 5765 5765 5765 5764 5764 5764 5766 5769 5768 5768 5773
5794 5809 5806 5795 5794 5777 5784 5775 5788 5791 5784 5784 5782 5780 5776 5776 5776 5776 5780 5786 5791 5788 5784 5780 5776 5776 5773 5772 5769 5770 5771 5766 5766 5765 5767 5769 5769 5770 5770 5768 5768 5766 5765 5766 5766 5767 5769 5769 5769
5799 5810 5806 5794 5785 5782 5776 5775 5799 5784 5783 5779 5776 5776 5776 5774 5771 5771 5775 5781 5787 5789 5787 5783 5777 5776 5773 5772 5773 5771 5767 5769 5769 5765 5764 5767 5768 5770 5772 5772 5771 5771 5770 5770 5770 5772 5772 5771 5768
5805 5802 5795 5790 5783 5767 5768 5770 5795 5789 5787 5774 5767 5770 5765 5764 5766 5769 5774 5780 5784 5789 5790 5787 5780 5776 5777 5776 5769 5763 5763 5764 5762 5762 5765 5770 5772 5774 5775 5775 5775 5776 5776 5776 5776 5776 5775 5772 5772
5807 5801 5769 5761 5759 5763 5761 5758 5794 5797 5792 5772 5764 5765 5766 5766 5764 5767 5770 5779 5782 5783 5787 5788 5783 5776 5774 5774 5761 5759 5760 5761 5760 5762 5769 5771 5775 5775 5778 5777 5777 5779 5777 5776 5776 5776 5774 5771 5770
5802 5808 5784 5750 5756 5768 5754 5765 5798 5798 5795 5784 5770 5766 5763 5764 5765 5767 5777 5780 5782 5782 5781 5779 5777 5776 5771 5767 5760 5760 5758 5760 5761 5766 5771 5771 5772 5775 5778 5776 5773 5772 5776 5776 5775 5773 5773 5773 5772
5794 5791 5801 5774 5750 5762 5765 5777 5801 5796 5790 5784 5772 5766 5759 5762 5763 5767 5772 5775 5782 5779 5774 5770 5769 5769 5768 5761 5755 5753 5753 5754 5758 5763 5765 5767 5772 5774 5773 5770 5768 5770 5772 5772 5771 5772 5772 5773 5771
5806 5800 5786 5782 5753 5749 5765 5762 5781 5783 5786 5783 5771 5767 5759 5764 5764 5767 5771 5769 5775 5773 5768 5766 5765 5762 5762 5760 5757 5755 5754 5756 5757 5758 5760 5763 5765 5765 5764 5764 5764 5766 5768 5768 5769 5770 5772 5771 5772
5790 5792 5779 5784 5770 5765 5760 5782 5797 5793 5795 5787 5778 5770 5765 5760 5762 5767 5766 5767 5764 5764 5762 5760 5760 5757 5755 5754 5751 5750 5749 5750 5750 5750 5750 5750 5752 5754 5756 5759 5760 5760 5761 5763 5766 5767 5768 5768 5770
5800 5799 5805 5790 5761 5758 5767 5785 5796 5796 5797 5791 5780 5772 5768 5762 5761 5762 5760 5757 5754 5753 5752 5749 5749 5749 5748 5748 5747 5744 5742 5741 5742 5741 5741 5741 5743 5745 5747 5748 5752 5756 5758 5759 5758 5759 5764 5766 5767